Location: Newark
(13.8117°N, 3.6025°W)
Time: 22:37:44
(UTC+00:00)

Vanguard 2 - Pass Details

Date: 31 August 2019
Orbit: 554 x 2937 km, 32.9° (Epoch: 17 September)

Event Time Altitude Azimuth Distance (km) Brightness Sun altitude
Rises 18:25:35 0° 284° (WNW) 4,817 14.8 -0.6°
Reaches altitude 10° 18:28:38 10° 276° (W) 4,130 13.5 -1.3°
Maximum altitude 18:39:22 39° 212° (SSW) 3,220 10.9 -3.9°
Drops below altitude 10° 18:54:26 10° 150° (SSE) 5,695 11.6 -7.5°
Sets 18:59:38 0° 143° (SE) 6,783 11.9 -8.7°
